Regional Weather Roundup
Issued by NWS

Current Version | Previous Version | Text Only | Print | Product List | Glossary On
Versions: 1 2 3 4 5 6 7 8 9 10 11 12 13 14 15 16 17 18 19 20 21 22 23 24 25 26 27 28 29 30 31 32 33 34 35 36 37 38 39 40 41 42 43 44 45 46 47 48 49 50
000
ASUS42 KFFC 191510
RWRGA
WEATHER ROUNDUP FOR GEORGIA
NATIONAL WEATHER SERVICE PEACHTREE CITY GA
1000 AM EST SUN FEB 19 2017

NOTE: "FAIR" INDICATES FEW OR NO CLOUDS BELOW 12,000 FEET WITH NO
SIGNIFICANT WEATHER AND/OR OBSTRUCTIONS TO VISIBILITY.

* = USE WITH CAUTION. THE STATIONS MARKED WITH AN ASTERISK MAY NOT
REPORT WEATHER SUCH AS PRECIPITATION, FOG, OR THUNDER AND ARE NOT
QUALITY CONTROLLED BY NWS.

THE REMARK "TC" DENOTES TEMPERATURE READING IN DEGREES CELSIUS.

GAZ001>058-191600-
NORTH GEORGIA

CITY           SKY/WX    TMP DP  RH WIND       PRES   REMARKS
ATLANTA        PTSUNNY   59  52  77 NW13      30.10R
ATHENS         SUNNY     61  52  72 W7        30.07R
CHAMBLEE       CLOUDY    59  51  75 NW10      30.09R
PEACHTREE CITY CLOUDY    59  53  80 VRB5      30.10R
ROME           MOSUNNY   57  51  80 CALM      30.11R
WEST ATLANTA   PTSUNNY   58  50  75 VRB5      30.10R
GAINESVILLE    SUNNY     58  51  78 W8        30.09R
CARTERSVILLE   PTSUNNY   55  51  86 CALM      30.12R


CITY           SKY/WX    TMP DP  RH WIND       PRES   REMARKS
DALTON*        CLOUDY    54  54 100 N5        30.12R
LAWRENCEVILLE* MOSUNNY   59  52  77 W7        30.09R
MARIETTA       PTSUNNY   58  53  82 NW6       30.09R
KENNESAW*      CLOUDY    55  52  88 NW7       30.11S
CANTON*        MOSUNNY   55  50  82 NW7       30.11R
$$

GAZ059>098-102>109-191600-
CENTRAL GEORGIA

CITY           SKY/WX    TMP DP  RH WIND       PRES   REMARKS
AUGUSTA-BUSH   SUNNY     65  54  67 NW12      30.04S
AUGUSTA-DANIEL SUNNY     63  51  65 VRB7      30.05R
COLUMBUS       PTSUNNY   59  54  83 CALM      30.10R
MACON          CLOUDY    60  54  80 N6        30.09R
ROBINS AFB     PTSUNNY   59  55  88 NW9       30.08R


CITY           SKY/WX    TMP DP  RH WIND       PRES   REMARKS
LAGRANGE*      MOSUNNY   63  59  87 NW8       30.10R
SYLVANIA*      SUNNY    N/A N/A N/A NW8       30.08R
MILLEDGEVILLE* SUNNY     61  57  88 NW3       30.08R
$$

GAZ099>101-110>166-191600-
SOUTH GEORGIA

CITY           SKY/WX    TMP DP  RH WIND       PRES   REMARKS
SAVANNAH       MOSUNNY   65  51  60 W8        30.07R
VALDOSTA       MOSUNNY   65  59  81 VRB5      30.10R
ALMA           CLOUDY    60  59  96 NW8       30.09S
ST SIMONS      MOSUNNY   64  58  80 NW9       30.07S
FT STEWART     SUNNY     64  53  66 W6        30.06R
ALBANY         CLOUDY    62  60  93 W7        30.12R
HUNTER AFB     SUNNY     65  55  70 NW5       30.05R
MOODY AFB      MOSUNNY   67  59  75 NW3       30.07R
BRUNSWICK      MOSUNNY   64  61  88 W10       30.08S


CITY           SKY/WX    TMP DP  RH WIND       PRES   REMARKS
BAINBRIDGE*    CLOUDY    64  63  94 CALM      30.11R
MOULTRIE*      MOSUNNY   64  59  82 W3        30.11R
VIDALIA*       MOSUNNY   64  59  82 NW7       30.08S
WAYCROSS*      CLOUDY    67  64  93 N6        30.09S
DOUGLAS*       CLOUDY    61  61 100 NW3       30.10S
$$



USA.gov is the U.S. government's official web portal to all federal, state and local government web resources and services.